www.pogodaiklimat.ru

Погода и климат >> Архив погоды >> Португалия >> Синиш


ПОГОДА в Синише

  • Прогноз погоды в Синише
  • Монитор погоды в Синише

АРХИВ ПОГОДЫ в Синише

Время (UTC), дата Ветер
(напр.,м/с)
 
Видим.   Явления Облачность Т
(С)
Тd
(С)
f
(%)
Тe
(С)
Тes
(С)
Комфортность P
(гПа)
Po
(гПа)
Тmin
(С)
Tmax
(С)
R
(мм)
R24
(мм)
S
(см)
16 13.09 СВ 8
{15}
н/о н/о +29.6 +11.5 33 +30 +30 жарко 1017.6 1006.4
17 13.09 СВ 7
{14}
н/о н/о +29.4 +11.4 33 +30 +30 жарко 1017.8 1006.7
18 13.09 СВ 7
{12}
н/о н/о +27.6 +11.5 37 +29 +29 жарко 1017.7 1006.5 +31.9
19 13.09 Ю 3
{9}
н/о н/о +21.1 +15.0 68 +24 +24 комфорт 1018.6 1007.1
20 13.09 Ю 2 н/о н/о +21.1 +15.4 70 +24 +24 комфорт 1019.6 1008.2
21 13.09 Ю 3
{5}
н/о н/о +20.5 +14.6 69 +23 +23 комфорт 1020.0 1008.5
22 13.09 Ю 2 н/о н/о +20.7 +14.2 66 +24 +24 комфорт 1019.8 1008.3
23 13.09 С 4 н/о н/о +21.4 +13.9 62 +24 +24 комфорт 1019.5 1008.0
00 14.09 С 4 н/о н/о +21.1 +13.2 61 +23 +23 комфорт 1019.2 1007.7
01 14.09 С 2 н/о н/о +19.7 +13.0 65 +22 +22 комфорт 1019.1 1007.5
02 14.09 СВ 3
{6}
н/о н/о +20.0 +12.6 62 +22 +22 комфорт 1018.5 1007.0
03 14.09 В 4
{6}
н/о н/о +20.6 +12.8 61 +23 +23 комфорт 1017.9 1006.4
04 14.09 В 3-5
{5}
н/о н/о +20.5 +12.2 59 +23 +23 комфорт 1017.9 1006.4
05 14.09 СЗ 2 н/о н/о +18.3 +12.7 70 +19 +19 1018.3 1006.8
06 14.09 СВ 3 н/о н/о +18.3 +12.9 71 +19 +19 1018.7 1007.1 +17.7
07 14.09 С 1 н/о н/о +19.9 +12.8 64 +23 +23 комфорт 1018.5 1006.9
08 14.09 н/о н/о +21.6 +13.2 59 1018.8 1007.3
09 14.09 С 2 н/о н/о +23.8 +13.3 52 +26 +26 жарко 1018.8 1007.5
10 14.09 н/о н/о +26.1 +13.9 47 1018.5 1007.2
11 14.09 СЗ 3-5
{5}
н/о н/о +25.2 +13.6 49 +27 +27 жарко 1018.4 1007.1
12 14.09 СЗ 4-7
{7}
н/о н/о +26.5 +13.8 46 +29 +29 жарко 1017.8 1006.5
13 14.09 СЗ 5 н/о н/о +26.5 +14.0 46 +29 +29 жарко 1017.3 1006.1
14 14.09 СЗ 6
{9}
н/о н/о +27.1 +13.6 43 +29 +29 жарко 1016.8 1005.6
15 14.09 СЗ 6
{9}
н/о н/о +27.0 +13.3 43 +29 +29 жарко 1016.6 1005.3
16 14.09 СЗ 6-9
{10}
н/о н/о +24.5 +14.7 54 +27 +27 жарко 1016.8 1005.5
17 14.09 СЗ 5 н/о н/о +22.6 +15.4 64 +27 +27 душно 1017.1 1005.7
18 14.09 СЗ 4-6
{7}
н/о н/о +22.8 +15.1 62 +27 +27 душно 1017.2 1005.8 +27.9
19 14.09 Ю 2
{5}
н/о н/о +19.3 +15.7 80 +22 +22 комфорт 1018.2 1006.6
20 14.09 Ю 3 н/о н/о +18.8 +16.7 88 +20 +20 1018.5 1006.9
21 14.09 Ю 4 н/о н/о +18.4 +17.3 93 +19 +19 1018.7 1007.2
22 14.09 Ю 4
{6}
н/о н/о +18.3 +17.0 92 +19 +19 1018.3 1006.8
23 14.09 Ю 3
{6}
н/о н/о +18.2 +16.5 90 +19 +19 1018.6 1007.1
00 15.09 Ю 3
{5}
н/о н/о +18.0 +16.5 91 +18 +18 1018.1 1006.6
01 15.09 ЮВ 1 н/о н/о +18.2 +16.9 92 +20 +20 1018.1 1006.6
02 15.09 Ю 3 н/о н/о +18.1 +16.1 88 +18 +18 1017.9 1006.4
03 15.09 Ю 3 н/о н/о +18.1 +16.3 89 +18 +18 1017.6 1006.0
04 15.09 ЮВ 3 н/о н/о +18.2 +15.9 86 +19 +19 1017.6 1006.0
05 15.09 ЮВ 2 н/о н/о +18.2 +16.8 92 +19 +19 1017.6 1006.0
06 15.09 В 2 н/о н/о +20.1 +14.8 72 +23 +23 комфорт 1017.8 1006.3 +17.7
07 15.09 Ю 3 н/о н/о +18.2 +15.1 82 +19 +19 1017.8 1006.3
08 15.09 С 1 н/о н/о +20.4 +15.1 72 +24 +24 комфорт 1018.3 1006.8
09 15.09 ЮЗ 2 н/о н/о +21.4 +16.8 75 +25 +25 комфорт 1018.7 1007.3
10 15.09 З 2 н/о н/о +22.4 +17.1 72 +27 +27 душно 1019.1 1007.7
11 15.09 З 2 н/о н/о +23.6 +15.2 59 +26 +26 жарко 1019.0 1007.6
12 15.09 З 3 н/о н/о +25.3 +17.2 61 +29 +29 душно 1018.4 1007.1
13 15.09 З 4
{6}
н/о н/о +27.1 +14.1 45 +29 +29 жарко 1018.0 1006.8
14 15.09 СЗ 4-6
{6}
н/о н/о +27.0 +15.0 48 +30 +30 душно 1017.6 1006.3
15 15.09 СЗ 5 н/о н/о +24.7 +16.1 59 +28 +28 душно 1017.4 1006.1
16 15.09 СЗ 5 н/о н/о +24.3 +15.0 56 +27 +27 жарко 1017.3 1006.0
17 15.09 СЗ 5 н/о н/о +22.7 +16.1 66 +27 +27 душно 1017.6 1006.3
18 15.09 СЗ 4-6
{7}
н/о н/о +21.4 +15.9 71 +25 +25 комфорт 1017.7 1006.3 +27.3
19 15.09 СЗ 4
{6}
н/о н/о +19.0 +16.7 87 +20 +20 1017.9 1006.4
20 15.09 СЗ 4-6
{7}
н/о н/о +18.3 +17.6 96 +19 +19 1018.5 1006.9
21 15.09 СЗ 3
{6}
н/о н/о +17.8 +17.3 97 +18 +18 1019.1 1007.5
22 15.09 СЗ 3 н/о н/о +17.7 +17.2 97 +18 +18 1019.4 1007.8
23 15.09 СЗ 3
{5}
н/о н/о +17.3 +17.0 98 +17 +17 1019.2 1007.6
00 16.09 СЗ 2
{5}
н/о н/о +17.0 +16.6 97 +17 +17 1019.4 1007.8
01 16.09 З 3 н/о н/о +17.3 +16.9 97 +17 +17 1019.3 1007.7
02 16.09 СЗ 2
{5}
н/о н/о +17.5 +16.7 95 +18 +18 1018.9 1007.3
03 16.09 З 2
{5}
н/о н/о +17.3 +16.4 94 +18 +18 1018.4 1006.8
04 16.09 З 2 н/о н/о +17.2 +16.1 93 +18 +18 1018.2 1006.6
05 16.09 З 1 н/о н/о +17.2 +16.1 93 +18 +18 1018.1 1006.5
06 16.09 З 2 н/о н/о +17.4 +16.2 93 +18 +18 1018.2 1006.6 +16.7
07 16.09 СЗ 1 н/о н/о +17.7 +16.1 90 +19 +19 1018.5 1006.9
08 16.09 З 2 н/о н/о +18.3 +16.1 87 +19 +19 1019.2 1007.6
09 16.09 СЗ 3
{5}
18 км 9/9 450 м
[Cu hum]
+19.7 +16.3 81 +22 +23 комфорт 1019.7 1008.1
10 16.09 З 3
{5}
18 км 3/3 900 м
[Sc]
+21.0 +16.4 75 +25 +30 комфорт 1019.7 1008.3
11 16.09 С 3
{5}
20 км 1/1 900 м
[Sc Ci]
+21.8 +16.2 70 +26 +34 душно 1019.4 1008.0
12 16.09 С 2
{6}
20 км 3/1 900 м
[Sc Ci]
+22.1 +16.5 71 +26 +38 душно 1019.2 1007.8
13 16.09 З 4
{6}
20 км 3/1 900 м
[Sc Ci]
+21.7 +16.7 73 +26 +34 душно 1018.6 1007.2
14 16.09 СЗ 3
{5}
20 км 3/1 500 м
[Cu hum Ci]
+22.9 +16.5 67 +28 +36 душно 1018.2 1006.8
15 16.09 З 3
{6}
н/о н/о +22.8 +16.7 68 +27 +27 душно 1017.9 1006.5
16 16.09 З 4-6
{6}
н/о н/о +22.3 +16.9 71 +27 +27 душно 1017.5 1006.1
17 16.09 З 3-6
{7}
н/о н/о +21.6 +17.0 75 +26 +26 душно 1017.4 1005.9
18 16.09 З 3
{6}
н/о н/о +20.4 +16.7 79 +24 +24 комфорт 1017.4 1005.9 +23.9
19 16.09 З 2 н/о н/о +19.3 +16.7 85 +22 +22 комфорт 1017.4 1005.9
20 16.09 З 1 н/о н/о +18.7 +16.6 88 +21 +21 комфорт 1017.6 1006.1
21 16.09 Ю 1 н/о н/о +17.8 +16.8 94 +19 +19 1018.0 1006.5
22 16.09 н/о н/о +18.2 +16.8 92 1017.5 1005.9
23 16.09 штиль 0 н/о н/о +18.2 +16.6 90 +19 +19 1017.5 1006.0
00 17.09 ЮЗ 1 н/о н/о +17.7 +16.8 94 +19 +19 1017.2 1005.7
01 17.09 ЮВ 1 н/о н/о +17.4 +16.8 96 +18 +18 1017.0 1005.5
02 17.09 В 1 н/о н/о +17.5 +16.9 96 +19 +19 1016.6 1005.0
03 17.09 штиль 0 н/о н/о +17.5 +16.6 94 +17 +17 1016.3 1004.7
04 17.09 штиль 0 н/о н/о +17.3 +16.4 94 +17 +17 1016.1 1004.5
05 17.09 СВ 1 н/о н/о +16.9 +16.1 95 +18 +18 1016.0 1004.5
06 17.09 СВ 2 н/о н/о +16.8 +16.1 96 +17 +17 1015.8 1004.2 +16.6
07 17.09 СВ 2 н/о н/о +17.5 +16.0 91 +18 +18 1016.3 1004.7
08 17.09 С 2 н/о н/о +20.2 +15.3 73 +23 +23 комфорт 1016.2 1004.8
09 17.09 С 3
{5}
20 км 6/0 2000 м
[Ac cast Ci sp]
+20.9 +15.3 70 +24 +27 комфорт 1016.6 1005.2
10 17.09 СЗ 2
{5}
20 км 4/0
[Ac cast Ci sp]
+22.8 +15.1 62 +27 +33 душно 1016.7 1005.4
11 17.09 СЗ 4
{6}
20 км 1/1 500 м
[Cb cap Ac cast Ci ing]
+23.2 +15.0 60 +27 +34 душно 1016.6 1005.2
12 17.09 СЗ 5
{8}
40 км 1/1 500 м
[Cb cap Ac cast Ci ing]
+23.1 +15.4 62 +27 +34 душно 1016.3 1004.9
13 17.09 СЗ 5 40 км 1/1 500 м
[Cb cap Ac cast Ci ing]
+23.1 +15.0 60 +27 +34 душно 1015.9 1004.6
14 17.09 СЗ 5 40 км 1/1 500 м
[Cb cap Ac cast Ci fib]
+23.2 +15.1 60 +27 +33 душно 1015.4 1004.0
15 17.09 СЗ 5
{8}
н/о н/о +22.9 +14.7 60 +27 +27 душно 1015.2 1003.9
16 17.09 З 4
{7}
н/о н/о +22.3 +16.5 70 +27 +27 душно 1015.2 1003.8
17 17.09 З 4-7
{7}
н/о н/о +21.5 +17.0 76 +25 +25 комфорт 1014.9 1003.5
18 17.09 З 3-5
{6}
н/о н/о +20.7 +16.2 75 +24 +24 комфорт 1015.0 1003.5 +24.2
19 17.09 З 2
{5}
н/о н/о +19.7 +16.8 83 +23 +23 комфорт 1015.1 1003.6
20 17.09 СЗ 3 н/о н/о +19.2 +16.5 84 +21 +21 комфорт 1015.8 1004.3
21 17.09 СЗ 3 н/о н/о +18.0 +16.3 90 +18 +18 1016.3 1004.7
22 17.09 С 2
{5}
н/о н/о +17.5 +15.5 88 +18 +18 1016.5 1004.9
23 17.09 СЗ 2
{5}
н/о н/о +16.9 +16.0 94 +17 +17 1016.2 1004.6
00 18.09 СЗ 3 н/о н/о +17.5 +16.1 91 +17 +17 1016.0 1004.4
01 18.09 СЗ 2 н/о н/о +16.7 +15.7 94 +17 +17 1015.8 1004.2
02 18.09 З 1 н/о н/о +17.0 +15.6 91 +18 +18 1015.5 1003.9
03 18.09 З 1 н/о н/о +16.6 +15.8 95 +17 +17 1015.3 1003.7
04 18.09 З 1 н/о н/о +16.4 +16.2 99 +17 +17 1015.3 1003.7
05 18.09 Ю 1 н/о н/о +16.1 +15.7 97 +17 +17 1015.5 1003.9
06 18.09 ЮЗ 1 н/о н/о +15.9 +15.5 97 +17 +17 1015.9 1004.2 +15.5
07 18.09 ЮЗ 1 н/о н/о +16.4 +16.4 100 +17 +17 1016.3 1004.6
08 18.09 ЮЗ 1 н/о н/о +18.0 +16.8 93 +19 +19 1016.7 1005.2
09 18.09 ЮЗ 2
{5}
20 км 3/1 500 м
[Cu Sc Ci fib]
+19.6 +15.9 79 +22 +26 комфорт 1017.2 1005.7
10 18.09 З 3 20 км 3/1 500 м
[Cu Sc Ci fib]
+22.0 +15.8 68 +26 +32 душно 1017.4 1006.0
11 18.09 -5
{6}
50 км 3/3 500 м
[Cu Sc Ci fib]
+21.9 +16.1 70 1017.7 1006.2
12 18.09 З 4
{6}
50 км 3/3 500 м
[Cu Sc Ci fib]
+22.6 +15.2 63 +26 +33 жарко 1017.7 1006.3
13 18.09 СЗ 3-6
{6}
50 км 4/3 500 м
[Cu Sc Ci fib]
+23.3 +13.9 55 +27 +34 душно 1017.3 1006.0
14 18.09 З 3
{5}
50 км 6/1 500 м
[Cu hum Ci]
+23.3 +14.3 57 +27 +35 душно 1016.9 1005.5
15 18.09 СЗ 3
{6}
н/о н/о +23.2 +15.1 60 +27 +27 душно 1017.0 1005.6
16 18.09 З 3
{5}
н/о н/о +21.3 +15.9 71 +25 +25 комфорт 1016.9 1005.5
17 18.09 З 2 н/о н/о +22.2 +16.2 69 +26 +26 душно 1016.9 1005.5
18 18.09 СЗ 2
{5}
н/о н/о +20.6 +16.3 76 +24 +24 комфорт 1016.9 1005.4 +25.2
19 18.09 СЗ 3 н/о н/о +19.0 +16.4 85 +21 +21 комфорт 1017.3 1005.8
20 18.09 СЗ 3
{5}
н/о н/о +17.9 +16.7 93 +18 +18 1017.7 1006.1
21 18.09 С 4
{6}
н/о н/о +17.1 +15.9 93 +17 +17 1017.8 1006.2
22 18.09 С 4 н/о н/о +16.9 +15.7 93 +16 +16 1018.0 1006.4
23 18.09 С 2 н/о н/о +16.7 +15.3 91 +17 +17 1017.9 1006.3
00 19.09 С 2 н/о н/о +16.5 +15.6 94 +17 +17 1017.8 1006.2
01 19.09 СЗ 4 н/о н/о +16.4 +15.7 96 +16 +16 1017.8 1006.2
02 19.09 С 3
{5}
н/о н/о +16.2 +15.4 95 +16 +16 1017.2 1005.6
03 19.09 С 3 н/о н/о +16.0 +15.5 97 +15 +15 1017.0 1005.4
04 19.09 С 2 н/о н/о +15.8 +15.3 97 +16 +16 1016.9 1005.2
05 19.09 С 2 н/о н/о +15.6 +15.5 99 +15 +15 1016.8 1005.1
06 19.09 С 1 н/о н/о +15.5 +15.3 99 +16 +16 1017.0 1005.3 +15.3
07 19.09 С 2 н/о н/о +16.3 +16.1 99 +16 +16 1017.2 1005.6
08 19.09 штиль 0 н/о н/о +16.6 +16.5 99 +16 +16 1017.8 1006.2
09 19.09 С 2 14 км 5/3 500 м
[Cu Sc Ci]
+19.7 +15.4 76 +22 +25 комфорт 1017.8 1006.3
10 19.09 З 3
{5}
20 км 5/3 500 м
[Cu Sc Ci]
+20.5 +16.0 75 +24 +28 комфорт 1018.2 1006.7
11 19.09 СЗ 4
{6}
20 км 5/3 500 м
[Cu Sc Ci]
+21.7 +15.2 67 +25 +30 комфорт 1018.2 1006.7
12 19.09 СЗ 4-6
{6}
40 км 4/1 500 м
[Cb cap Ac trans Cs]
+21.7 +15.4 67 +25 +32 комфорт 1017.7 1006.3
13 19.09 СЗ 4-6
{6}
40 км 6/1 500 м
[Cu hum Ac trans Cs]
+20.4 +15.4 73 +23 +29 комфорт 1017.4 1005.9
14 19.09 З 4-6
{6}
40 км 8/1 500 м
[Cu hum Cs]
+22.4 +15.5 65 +26 +32 жарко 1016.8 1005.4
15 19.09 СЗ 4
{7}
н/о н/о +21.1 +16.2 74 +24 +24 комфорт 1016.5 1005.1
16 19.09 З 4
{7}
н/о н/о +20.4 +16.7 79 +24 +24 комфорт 1016.2 1004.8
17 19.09 З 3
{6}
н/о н/о +20.5 +17.0 80 +24 +24 комфорт 1016.0 1004.5
18 19.09 З 3
{5}
н/о н/о +19.8 +17.0 84 +23 +23 комфорт 1016.1 1004.6 +22.7
19 19.09 СЗ 3
{5}
н/о н/о +19.0 +17.2 89 +21 +21 комфорт 1016.2 1004.7
20 19.09 СЗ 4 н/о н/о +18.4 +17.2 93 +19 +19 1016.7 1005.1
21 19.09 СЗ 3
{5}
н/о н/о +17.9 +16.9 94 +18 +18 1017.0 1005.4
22 19.09 С 3
{5}
н/о н/о +17.2 +16.8 97 +17 +17 1016.7 1005.1
23 19.09 СЗ 3
{5}
н/о н/о +16.8 +16.4 97 +17 +17 1016.4 1004.8
00 20.09 СЗ 3
{5}
н/о н/о +16.8 +16.4 97 +17 +17 1016.2 1004.7
01 20.09 С 2
{5}
н/о н/о +16.5 +16.1 97 +17 +17 1015.8 1004.2
02 20.09 С 2 н/о н/о +16.3 +15.9 97 +16 +16 1015.2 1003.6
03 20.09 СЗ 2 н/о н/о +16.3 +16.0 98 +16 +16 1015.2 1003.6
04 20.09 СЗ 1 н/о н/о +16.7 +16.4 98 +18 +18 1014.5 1002.9
05 20.09 штиль 0 н/о н/о +15.8 +15.7 99 +16 +16 1014.5 1002.9
06 20.09 штиль 0 н/о н/о +16.1 +15.9 99 +16 +16 1014.6 1003.0 +15.5
07 20.09 ЮВ 1 н/о н/о +16.6 +16.3 98 +17 +17 1014.9 1003.3
08 20.09 ЮВ 2 н/о н/о +17.1 +16.9 99 +17 +17 1015.2 1003.6
09 20.09 ЮВ 2 30 км в посл. час дождь 9/9 500 м
[Cu Sc]
+18.2 +17.4 95 +19 +20 1014.7 1003.2 0.0
10 20.09 Ю 2 20 км слаб. дождь 9/9 500 м
[Cu Sc As op]
+19.1 +16.8 87 +21 +22 комфорт 1014.9 1003.4 0.0
11 20.09 ЮЗ 2
{7}
15 км в посл. час дождь 9/1 500 м
[Cu Sc As op]
+18.3 +17.0 92 +19 +22 1014.9 1003.3 2
12 20.09 ЮЗ 3 20 км {дождь} 8/4 500 м
[Cb cap Cs]
+18.9 +16.9 88 +20 +26 1015.1 1003.6 2
13 20.09 ЮЗ 3
{5}
30 км 5/4 500 м
[Cb cap Cs]
+21.4 +16.7 75 +25 +32 комфорт 1014.4 1003.0
14 20.09 ЮЗ 4-6
{7}
40 км 4/1 500 м
[Cu Sc Cs]
+21.2 +17.0 77 +25 +31 комфорт 1014.0 1002.6
15 20.09 ЮЗ 4-7
{7}
н/о н/о +21.4 +16.7 75 +25 +25 комфорт 1013.7 1002.3

 

Местоположение метеостанции Синиш (Португалия): широта 37.95 долгота -8.87 высота над уровнем моря 103 м.

В архиве по умолчанию представлена погода в Синише за последнюю неделю. Архивные данные за месяц целиком и за предыдущие месяцы, начиная с января 2011 года, Вы можете получить, выбрав интересующий диапазон дат из раскрывающегося списка и нажав кнопку "Ввод!".


*Определитесь, кто Вы:
робот инопланетянин человек

Внимание! Время в таблицах - всемирное. Для получения местного времени необходимо прибавить поправку, которая равна 0 ч.

Смотрите также архив погоды в соседних городах и на ближайших метеорологических станциях:

Погода в Бежа аэропорту (Португалия) (84 км)
Погода в Монтижу (Португалия) (85 км)
Погода в Беже (Португалия) (88 км)
Погода в Лиссабоне (Португалия) (89 км)
Погода в Лиссабон аэропорту (Португалия) (94 км)
Погода в Сагресе (Португалия) (106 км)
Погода в Эворе (Португалия) (107 км)
Погода в Фару (Португалия) (130 км)
Погода в Айямонте - Исла Канель (Испания) (155 км)
Погода в Кабо Карвоейру (Португалия) (162 км)

Пояснения к столбцам:

Ветер - указаны скорость ветра в м/с - средняя за 10 мин, порывы в срок и между сроками (в фигурных скобках) и направление, откуда дует ветер: С - северный, СВ - северо-восточный, В - восточный, ЮВ - юго-восточный, Ю - южный, ЮЗ - юго-западный, З - западный, СЗ - северо-западный.
Видимость - горизонтальная дальность видимости в метрах или километрах. При видимости от 1 до 10 км при отсутствии осадков обычно наблюдается дымка, при ухудшении видимости до 1 км и менее - туман. В сухую погоду видимость может ухудшаться дымом, пылью или мглою.
Явления - указаны атмосферные явления, наблюдавшиеся в срок или в последний час перед сроком; фигурными скобками обозначены явления, наблюдавшиеся между сроками (за 1-3 часа до срока); квадратными скобками обозначены град или гололедные отложения с указанием их диаметра в мм.
Облачность - указаны через наклонную черту общая и нижняя облачность в баллах и высота нижней границы облаков в метрах; квадратными скобками обозначены формы облаков: Ci - перистые, Cs - перисто-слоистые, Cc - перисто-кучевые, Ac - высококучевые, As - высокослоистые, Sc - слоисто-кучевые, Ns - слоисто-дождевые, Cu - кучевые, Cb - кучево-дождевые. Подробнее классификацию облаков см. в Атласе облаков (PDF).
T - Температура воздуха - температура, измеренная на высоте 2 м над землей.
Td - Температура точки росы - температура, при понижении до которой содержащийся в воздухе водяной пар достигнет насыщения.
f - Относительная влажность воздуха - влажноcть воздуха, измеренная на высоте 2 м над землей.
Te - Эффективная температура - температура, которую ощущает одетый по сезону человек в тени. Характеристика душности погоды. При расчете учитывается влияние влажности воздуха и скорости ветра на теплоощущения человека.
Tes - Эффективная температура на солнце - температура, которую ощущает человек, с поправкой на солнечный нагрев. Характеристика знойности погоды. Зависит от высоты солнца над горизонтом, облачности и скорости ветра. Ночью, в пасмурную погоду, а также при ветре 12 м/с и более поправка равна нулю.
P - Атмосферное давление - приведенное к уровню моря атмосферное давление.
Po - Атмосферное давление - измеренное на уровне метеостанции атмосферное давление.
Tmin - Минимальная температура - минимум температуры воздуха на высоте 2 м над землей.
Tmax - Максимальная температура - максимум температуры воздуха на высоте 2 м над землей.
R - Количество осадков - Количество выпавших осадков за период времени, мм. При наведении курсора мыши на число - период времени, за который выпало указанное количество осадков.
R24 - Количество осадков - Количество выпавших осадков за 24 часа, мм.
S - Снежный покров - Высота снежного покрова, см. При наведении курсора мыши на число - состояние снежного покрова и степень покрытия местности в баллах.